#timestamp,LO_Frequency,Hit,StdDev 
1605765615.3,286047003.8,P
1605765635.2,286047003.2,N
1605765655.9,286047005.9,P
1605765675.7,286047005.8,Y
1605765695.6,286046999.8,P
1605765715.4,286047001.7,N
1605765735.2,286047004.3,N
1605765755.1,286047005.1,N
1605765756.0,286047005.1,N
1605765775.8,286047005.7,N
1605765795.6,286047007.1,Y
1605765815.5,286047001.4,P
1605765835.3,286047004.4,P
1605765855.1,286047001.5,N
1605765875.9,286047005.7,Y
1605765895.7,286047002.2,P
1605765915.5,286047004.4,P
1605765935.4,286047004.3,P
1605765955.2,286047003.9,Y
1605765975.0,286046998.5,P
1605765975.9,286046998.5,N
1605765995.8,286046998.3,N
1605766015.6,286047000.6,N
1605766035.4,286047000.2,N
1605766055.3,286047000.2,N
1605766075.1,286047000.3,N
1605766095.8,286047001.5,N
1605766115.7,286047004.3,N
1605766135.5,286047003.8,N
1605766155.3,286047004.3,N
1605766175.2,286047003.4,N
1605766195.9,286047006.0,N
1605766215.7,286047005.4,N
1605766235.6,286047002.9,N
1605766255.4,286047005.2,N
1605766275.2,286047006.8,N
1605766295.1,286047006.9,N
1605766296.0,286047006.9,N
1605766315.8,286047007.1,N
1605766335.6,286047006.5,N
1605766355.5,286047009.1,Y
1605766375.3,286047005.2,P
1605766395.1,286047005.0,P
1605766415.9,286047005.0,P
1605766435.7,286047005.0,Y
1605766455.5,286047002.8,P
1605766475.4,286047002.5,N
1605766495.2,286047002.6,N
1605766515.0,286047001.4,N
1605766515.9,286047001.4,N
1605766535.8,286047001.7,N
1605766555.6,286047004.3,Y
1605766575.4,286046999.7,P
1605766595.3,286047000.5,N
1605766615.1,286047002.7,N
1605766635.8,286047002.1,N
1605766655.7,286047001.6,N
1605766675.5,286047003.9,Y
1605766695.3,286047001.6,P
1605766715.2,286047002.8,P
1605766735.9,286047002.0,P
1605766755.7,286047002.7,Y
1605766775.6,286047000.8,P
1605766795.4,286047000.4,N
1605766815.2,286046998.7,N
1605766835.1,286047000.4,N
1605766836.0,286047000.4,N
1605766855.8,286046999.9,N
1605766875.6,286047000.4,N
1605766895.5,286046999.8,N
1605766915.3,286047002.1,N
1605766935.1,286047001.9,N
1605766955.9,286047002.4,N
1605766975.7,286047002.6,N
1605766995.5,286047001.9,N
1605767015.4,286047001.3,N
1605767035.2,286047001.4,N
1605767055.0,286047003.8,Y
1605767055.9,286047003.8,P
1605767075.8,286047001.4,N
1605767095.6,286047002.2,N
1605767115.4,286047002.2,N
1605767135.3,286047001.6,N
1605767155.1,286047001.7,N
1605767175.8,286047002.5,N
1605767195.7,286047002.6,Y
1605767215.5,286046998.9,P
1605767235.3,286046998.1,N
1605767255.2,286047001.2,N
1605767275.9,286047002.7,N
1605767295.7,286047002.7,N
1605767315.6,286047000.7,N
1605767335.4,286047001.0,N
1605767355.2,286047000.6,N
1605767375.1,286047000.0,N
1605767376.0,286047000.0,N
1605767395.8,286047001.0,N
1605767415.6,286047001.0,N
1605767435.5,286046998.6,N
1605767455.3,286047000.7,N
1605767475.1,286047000.7,N
1605767495.9,286046998.3,N
1605767515.7,286047000.9,N
1605767535.5,286047000.6,N
1605767555.4,286046998.5,N
1605767575.2,286047000.7,N
1605767595.0,286047001.2,N
1605767595.9,286047001.2,N
1605767615.8,286046998.9,N
1605767635.6,286047001.1,N
1605767655.4,286046998.7,N
1605767675.3,286046999.0,N
1605767695.1,286046998.2,N
1605767696.0,286046998.2,N
1605767715.8,286046998.2,N
1605767735.7,286046998.9,N
1605767755.5,286046999.3,N
1605767775.3,286046998.6,N
1605767795.2,286046998.4,N
1605767815.9,286046998.7,N
1605767835.7,286047001.0,N
1605767855.6,286046999.1,N
1605767875.4,286046999.1,N
1605767895.2,286046999.1,N
1605767915.1,286046998.4,N
1605767916.0,286046998.4,N
1605767935.8,286046998.1,N
1605767955.6,286046998.5,N
1605767975.5,286046998.4,N
1605767995.3,286047001.2,N
1605768015.1,286047000.8,N
1605768035.9,286046998.2,N
1605768055.7,286047000.8,N
1605768075.5,286047000.7,N
1605768095.4,286046999.3,N
1605768115.2,286046999.6,N
1605768135.0,286046999.6,N
1605768135.9,286046999.6,N
1605768155.8,286046998.9,N
1605768175.6,286046996.7,Y
1605768195.4,286046998.6,P
1605768215.3,286046998.3,P
1605768235.1,286046998.3,P
1605768236.0,286046998.3,Y
1605768255.8,286047000.7,P
1605768275.7,286047000.0,N
1605768295.5,286047000.7,N
1605768315.3,286047000.7,N
1605768335.2,286046998.8,N
1605768355.9,286046999.3,N
1605768375.7,286046999.0,N
1605768395.6,286046996.9,Y
1605768415.4,286046999.5,P
1605768435.2,286046996.5,P
1605768455.1,286046996.7,N
1605768456.0,286046996.7,N
1605768475.8,286046997.6,N
1605768495.6,286046997.6,N
1605768515.5,286046996.5,N
1605768535.3,286046996.6,N
1605768555.1,286046997.6,N
1605768575.9,286046998.0,N
1605768595.7,286046997.5,N
1605768615.5,286046995.4,Y
1605768635.4,286046998.4,P
1605768655.2,286046999.4,N
1605768675.0,286046999.0,N
1605768675.9,286046999.0,N
1605768695.8,286046998.9,N
1605768715.6,286046998.2,Y
1605768735.4,286047000.5,P
1605768755.3,286047001.1,N
1605768775.1,286047000.9,N
1605768795.8,286046998.2,N
1605768815.7,286046999.5,N
1605768835.5,286046999.4,N
1605768855.3,286046999.0,N
1605768875.2,286046998.7,N
1605768895.9,286046996.7,Y
1605768915.7,286046996.9,P
1605768935.6,286046997.7,N
1605768955.4,286046997.4,N
1605768975.2,286046997.8,N
1605768995.1,286046997.7,N
1605768996.0,286046997.7,N
1605769015.8,286046996.7,Y
1605769035.6,286047000.0,P
1605769055.5,286047001.0,N
1605769075.3,286046998.6,N
1605769095.1,286047000.7,N
1605769115.9,286047001.2,N
1605769135.7,286046998.5,N
1605769155.5,286046998.3,N
1605769175.4,286046996.5,N
1605769195.2,286046999.2,N
